This is the latest recevied weather packets stored in our database for station/object W4CAT-13. If no packets are shown the sender has not sent any weather packets the latest 10 day(s).
| Time | Temp. | Humidity | Pressure | Rain* | Wind** | Luminosity | Snow |
|---|---|---|---|---|---|---|---|
| 1778110612 | 12.22° C | 95% | 976.9 hPa | 1.02 mm | - | - | - |
| 1778109682 | 12.22° C | 95% | 977 hPa | 0.76 mm | - | - | - |
| 1778108752 | 12.78° C | 93% | 977.6 hPa | 0.51 mm | - | - | - |
| 1778107860 | 12.78° C | 91% | 977.2 hPa | 0.25 mm | - | - | - |
| 1778107822 | 12.78° C | 91% | 977.2 hPa | 0.25 mm | - | - | - |
| 1778106892 | 13.33° C | 89% | 977.3 hPa | 0 mm | - | - | - |
| 1778105962 | 13.33° C | 89% | 976.6 hPa | 0 mm | - | - | - |
| 1778105032 | 13.33° C | 88% | 977 hPa | 0 mm | - | - | - |
| 1778104102 | 13.33° C | 88% | 976.6 hPa | 0 mm | - | - | - |
| 1778103172 | 13.33° C | 89% | 976 hPa | 0 mm | - | - | - |
| 1778102242 | 13.33° C | 88% | 976 hPa | 0 mm | - | - | - |
| 1778101312 | 13.33° C | 90% | 976.3 hPa | 0 mm | - | - | - |
| 1778100382 | 13.33° C | 90% | 976.3 hPa | 0 mm | - | - | - |
| 1778099452 | 13.33° C | 91% | 976.6 hPa | 0 mm | - | - | - |
| 1778098521 | 13.33° C | 91% | 976.6 hPa | 0 mm | - | - | - |
| 1778097591 | 12.78° C | 90% | 976 hPa | 0 mm | - | - | - |
| 1778096662 | 12.78° C | 90% | 976.3 hPa | 0 mm | - | - | - |
| 1778095732 | 13.33° C | 90% | 976 hPa | 0 mm | - | - | - |
| 1778094803 | 12.78° C | 95% | 976 hPa | 0 mm | - | - | - |
| 1778093872 | 12.22° C | 94% | 977 hPa | 0 mm | - | - | - |
| 1778092942 | 11.67° C | 94% | 977 hPa | 0 mm | - | - | - |
| 1778092011 | 11.67° C | 93% | 977 hPa | 0.25 mm | - | - | - |
| 1778091081 | 11.67° C | 94% | 976.3 hPa | 0.25 mm | - | - | - |
| 1778090152 | 11.67° C | 96% | 976 hPa | 0.25 mm | - | - | - |
| 1778089221 | 11.11° C | 97% | 976 hPa | 0.25 mm | - | - | - |
* Rain latest hour (hover to see other rain measurements)
** Current wind speed in m/s (hover to see current wind gust speed)